Showing default

FLOCK 4Q 27, 58282

Orbit data source: Space-Track

FLOCK 4Q 27, 58282 is a payload satellite owned by Planet (US) in SSO that was launched on Sat, 11 Nov 2023 UTC via an FALCON 9 launch vehicle from the Air Force Western Test Range (AFWTR). Payload-class satellites include a variety of spacecraft equipped with specific instruments for various scientific and technological missions. These include communications satellites like Starlink; space stations such as the ISS; scientific satellites like the Hubble; Earth observation satellites from companies like Planet Labs, Umbra, and HawkEye 360; GPS; miniature CubeSats for education and research; and military/defense satellites.

Loading next visibility...
Identifier
58282, 2023-174AC
Orbit
SSO
Country
Flag of USUS
Related business
Manufacturer
Planet
Mission
Operational Commercial Imaging
Bus & Motor
CUBESAT 3U, Unknown motor
Mass
5.7 kg wet, 5.7 kg dry
Launch date (UTC)
2023-11-11 (2 years ago)
Launch vehicle
FALCON 9
Launch site
Air Force Western Test Range (AFWTR)
Object type
Payload
Rocket body
Debris
Shape & HBR
Box + 2 Pan, 1.0 m
Radar Cross Section
0.072 m², Medium (>0.1 m² and < 1m²)

Expand to show TLE details & history
Last TLE update: 12 hours ago

TLE from 12 hours ago
0 FLOCK 4Q 27
1 58282U 23174AC  26126.50598116  .00023156  00000-0  38020-3 0  9997
2 58282  97.3798 215.8995 0003474 287.6352  72.4521 15.52416849139289
Epoch: 2026-05-06T12:08Z
TLE epoch observation values (Epoch: 2026-05-06T12:08:36.772Z)
Latitude
-0.00002°
Longitude
169.38079°
Altitude
412.096 km
Speed
7.664 km/s
True Right ascension
14h 23m 35s
True Declination
0° 00' 00"
Sunlit
Object was in full shadow at epoch
Visualization orbit readout
Latitude
Unknown
Longitude
Unknown
Altitude
Unknown
Speed
Unknown
Apparent Right ascension
Unknown
Apparent Declination
Unknown
Sunlit
N/A
Visualization observer readout
Local Sidereal Time
08:27:08
Azimuth
Unknown
Elevation
Unknown
Doppler factor
Unknown
Orbital elements
Apogee altitude
408.951 km
Perigee altitude
404.237 km
Semi-major axis
6,784.731 km
Eccentricity
0.00035
Inclination
97.3798°
RAAN
215.8995°
Arg. of periapsis
287.6352°
True anomaly
72.49006°
Mean anomaly
72.4521°
Eccentric anomaly
72.47108°
Mean motion
3.88369 °/min
Orbital period
92.7 mins
BSTAR
0.0003802
Loading maneuver chart data...
Computing Atmospheric mass density...
Loading historical data...
Loading historical data...
Loading historical data...
Loading historical data...
Loading historical data...
Loading historical data...
Loading historical data...

Documentation

Showing up to 5 results
|